Weather History for KCGZ - October, 2012

Change the Weather History Date:

Wednesday, October 31, 2012

  Actual Average Record
Temperature  
Mean Temperature 68 °F -  
Max Temperature 86 °F 75 °F 91 °F (2008)
Min Temperature 51 °F 48 °F 42 °F (2013)
Cooling Degree Days 4    
Growing Degree Days 18 (Base 50)    
Moisture  
Dew Point 27 °F    
Average Humidity 24    
Maximum Humidity 35    
Minimum Humidity 12    
Precipitation  
Precipitation 0.00 in - - ()
Sea Level Pressure  
Sea Level Pressure 29.99 in    
Wind  
Wind Speed 0 mph (North)    
Max Wind Speed 6 mph    
Max Gust Speed -    
Visibility 10 miles    
Events      
Averages and records for this station are not official NWS values.
T = Trace of Precipitation, MM = Missing Value Source: NWS Daily Summary

Daily Weather History Graph

Daily Weather History Graph

Search for Another Location

Airport or City:

Trip Planner

Search our weather history database for the weather conditions in past years. The results will help you decide how hot, cold, wet, or windy it might be!

Date:

Astronomy

Oct. 31, 2012 Rise Set
Actual Time 6:44 AM MST 5:36 PM MST
Civil Twilight 6:19 AM MST 6:01 PM MST
Nautical Twilight 5:49 AM MST 6:30 PM MST
Astronomical Twilight 5:21 AM MST 6:59 PM MST
Moon 6:56 PM MST (10/31) 8:23 AM MST (10/31)
Length of Visible Light 11h 42m
Length of Day
10h 51m
Waning Gibbous, 97% of the Moon is Illuminated
Oct 31
Waning Gibbous
Nov 6
Last Quarter
Nov 13
New
Nov 20
First Quarter
Nov 28
Full

Hourly Weather History & Observations

Time (MST) Temp. Dew Point Humidity Pressure Visibility Wind Dir Wind Speed Gust Speed Precip Events Conditions
12:15 AM 55.4 °F 24.8 °F 31% 30.00 in 10.0 mi Calm Calm - N/A   Clear
12:35 AM 59.0 °F 26.6 °F 29% 30.00 in 10.0 mi Calm Calm - N/A   Clear
12:55 AM 59.0 °F 26.6 °F 29% 30.00 in 10.0 mi Calm Calm - N/A   Clear
1:15 AM 55.4 °F 24.8 °F 31% 30.00 in 10.0 mi Calm Calm - N/A   Clear
1:35 AM 53.6 °F 24.8 °F 33% 30.00 in 10.0 mi Calm Calm - N/A   Clear
1:55 AM 55.4 °F 26.6 °F 33% 30.00 in 10.0 mi Calm Calm - N/A   Clear
2:35 AM 53.6 °F 24.8 °F 33% 30.00 in 10.0 mi Calm Calm - N/A   Clear
2:55 AM 51.8 °F 24.8 °F 35% 30.00 in 10.0 mi Calm Calm - N/A   Clear
3:15 AM 53.6 °F 26.6 °F 35% 29.99 in 10.0 mi Calm Calm - N/A   Clear
3:35 AM 53.6 °F 24.8 °F 33% 29.99 in 10.0 mi Calm Calm - N/A   Clear
3:55 AM 51.8 °F 24.8 °F 35% 29.99 in 10.0 mi Calm Calm - N/A   Clear
4:15 AM 51.8 °F 24.8 °F 35% 29.99 in 10.0 mi Calm Calm - N/A   Clear
4:35 AM 51.8 °F 24.8 °F 35% 30.00 in 10.0 mi Calm Calm - N/A   Clear
4:55 AM 53.6 °F 26.6 °F 35% 30.00 in 10.0 mi Calm Calm - N/A   Clear
5:15 AM 51.8 °F 24.8 °F 35% 30.00 in 10.0 mi Calm Calm - N/A   Clear
5:35 AM 51.8 °F 24.8 °F 35% 30.00 in 10.0 mi Calm Calm - N/A   Clear
5:55 AM 53.6 °F 24.8 °F 33% 30.00 in 10.0 mi Calm Calm - N/A   Clear
6:15 AM 53.6 °F 26.6 °F 35% 30.00 in 10.0 mi Calm Calm - N/A   Clear
6:35 AM 53.6 °F 26.6 °F 35% 30.01 in 10.0 mi Calm Calm - N/A   Clear
6:55 AM 53.6 °F 26.6 °F 35% 30.01 in 10.0 mi Calm Calm - N/A   Clear
7:15 AM 55.4 °F 26.6 °F 33% 30.02 in 10.0 mi Calm Calm - N/A   Clear
7:35 AM 57.2 °F 28.4 °F 33% 30.03 in 10.0 mi Calm Calm - N/A   Clear
7:55 AM 59.0 °F 28.4 °F 31% 30.03 in 10.0 mi Calm Calm - N/A   Clear
8:15 AM 60.8 °F 30.2 °F 31% 30.04 in 10.0 mi Calm Calm - N/A   Clear
8:35 AM 62.6 °F 30.2 °F 30% 30.04 in 10.0 mi Calm Calm - N/A   Clear
8:55 AM 62.6 °F 30.2 °F 30% 30.04 in 10.0 mi Calm Calm - N/A   Clear
9:15 AM 66.2 °F 32.0 °F 28% 30.04 in 10.0 mi Calm Calm - N/A   Clear
9:35 AM 68.0 °F 32.0 °F 26% 30.04 in 10.0 mi Calm Calm - N/A   Clear
9:55 AM 69.8 °F 32.0 °F 25% 30.05 in 10.0 mi Calm Calm - N/A   Clear
10:15 AM 71.6 °F 32.0 °F 23% 30.05 in 10.0 mi Calm Calm - N/A   Clear
10:35 AM 71.6 °F 32.0 °F 23% 30.04 in 10.0 mi Calm Calm - N/A   Clear
10:55 AM 73.4 °F 32.0 °F 22% 30.04 in 10.0 mi Calm Calm - N/A   Clear
11:15 AM 77.0 °F 33.8 °F 21% 30.04 in 10.0 mi Calm Calm - N/A   Clear
11:35 AM 78.8 °F 33.8 °F 20% 30.03 in 10.0 mi Calm Calm - N/A   Clear
11:55 AM 78.8 °F 33.8 °F 20% 30.02 in 10.0 mi Calm Calm - N/A   Clear
12:15 PM 80.6 °F 33.8 °F 18% 30.01 in 10.0 mi Calm Calm - N/A   Clear
12:35 PM 82.4 °F 33.8 °F 17% 29.99 in 10.0 mi Calm Calm - N/A   Clear
12:55 PM 82.4 °F 32.0 °F 16% 29.98 in 10.0 mi Calm Calm - N/A   Clear
1:15 PM 84.2 °F 32.0 °F 15% 29.97 in 10.0 mi Calm Calm - N/A   Clear
1:35 PM 84.2 °F 30.2 °F 14% 29.97 in 10.0 mi Calm Calm - N/A   Clear
1:55 PM 86.0 °F 30.2 °F 13% 29.96 in 10.0 mi NNW 5.8 mph - N/A   Clear
2:15 PM 84.2 °F 30.2 °F 14% 29.95 in 10.0 mi NNE 4.6 mph - N/A   Clear
2:35 PM 86.0 °F 30.2 °F 13% 29.95 in 10.0 mi Calm Calm - N/A   Clear
2:55 PM 86.0 °F 30.2 °F 13% 29.94 in 10.0 mi NNE 3.5 mph - N/A   Clear
3:15 PM 86.0 °F 30.2 °F 13% 29.94 in 10.0 mi Calm Calm - N/A   Clear
3:35 PM 86.0 °F 28.4 °F 12% 29.94 in 10.0 mi Calm Calm - N/A   Clear
3:55 PM 86.0 °F 28.4 °F 12% 29.93 in 10.0 mi Calm Calm - N/A   Clear
4:15 PM 86.0 °F 28.4 °F 12% 29.93 in 10.0 mi Calm Calm - N/A   Clear
4:35 PM 84.2 °F 28.4 °F 13% 29.93 in 10.0 mi Calm Calm - N/A   Clear
4:55 PM 84.2 °F 26.6 °F 12% 29.93 in 10.0 mi Calm Calm - N/A   Clear
5:35 PM 80.6 °F 24.8 °F 13% 29.93 in 10.0 mi Calm Calm - N/A   Clear
5:55 PM 78.8 °F 24.8 °F 14% 29.93 in 10.0 mi Calm Calm - N/A   Clear
6:35 PM 73.4 °F 23.0 °F 15% 29.94 in 10.0 mi Calm Calm - N/A   Clear
6:55 PM 73.4 °F 24.8 °F 16% 29.94 in 10.0 mi Calm Calm - N/A   Clear
7:15 PM 71.6 °F 24.8 °F 17% 29.95 in 10.0 mi Calm Calm - N/A   Clear
7:35 PM 71.6 °F 24.8 °F 17% 29.95 in 10.0 mi Calm Calm - N/A   Clear
7:55 PM 69.8 °F 24.8 °F 18% 29.95 in 10.0 mi Calm Calm - N/A   Clear
8:15 PM 68.0 °F 23.0 °F 18% 29.95 in 10.0 mi Calm Calm - N/A   Clear
8:35 PM 66.2 °F 21.2 °F 18% 29.95 in 10.0 mi Calm Calm - N/A   Clear
8:55 PM 66.2 °F 23.0 °F 19% 29.96 in 10.0 mi Calm Calm - N/A   Clear
9:15 PM 66.2 °F 23.0 °F 19% 29.96 in 8.0 mi Calm Calm - N/A   Clear
9:35 PM 64.4 °F 21.2 °F 19% 29.97 in 10.0 mi Calm Calm - N/A   Clear
9:55 PM 62.6 °F 23.0 °F 22% 29.97 in 10.0 mi Calm Calm - N/A   Clear
10:15 PM 60.8 °F 21.2 °F 22% 29.97 in 10.0 mi Calm Calm - N/A   Clear
10:35 PM 60.8 °F 21.2 °F 22% 29.97 in 10.0 mi Calm Calm - N/A   Clear
10:55 PM 57.2 °F 21.2 °F 25% 29.97 in 10.0 mi Calm Calm - N/A   Clear
11:15 PM 57.2 °F 21.2 °F 25% 29.98 in 10.0 mi Calm Calm - N/A   Clear
11:35 PM 59.0 °F 23.0 °F 25% 29.98 in 10.0 mi Calm Calm - N/A   Clear
11:55 PM 57.2 °F 23.0 °F 27% 29.98 in 10.0 mi Calm Calm - N/A   Clear